Regional Weather Roundup
Issued by NWS

Home | Current Version | Previous Version | Graphics & Text | Print | Product List | Glossary On
Versions: 1 2 3 4 5 6 7 8 9 10 11 12 13 14 15 16 17 18 19 20 21 22 23 24 25 26 27 28 29 30 31 32 33 34 35 36 37 38 39 40 41 42 43 44 45 46 47 48 49 50
604
ASUS45 KBOU 271307
RWRCO

WEATHER ROUNDUP FOR COLORADO
NATIONAL WEATHER SERVICE DENVER/BOULDER CO
700 AM MDT MON MAR 27 2017

NOTE: "FAIR" INDICATES FEW OR NO CLOUDS BELOW 12000 FEET WITH NO
SIGNIFICANT WEATHER AND/OR OBSTRUCTIONS TO VISIBILITY.

COZ001>005-013-030-031-271400-
...NORTHWEST COLORADO...

CITY           SKY/WX    TMP DP  RH WIND       PRES   REMARKS
CRAIG          CLOUDY    30  25  81 SE5       29.96S WCI  25
HAYDEN         FAIR      28  21  74 SE5       29.96R WCI  23
MEEKER         CLOUDY    35  27  72 CALM      29.95S
MOUNT WERNER   NOT AVBL
STEAMBOAT SPGS CLOUDY    29  27  92 W3        29.96S
WALDEN         NOT AVBL
$$

COZ006>008-011-271400-
...WEST CENTRAL VALLEYS...

CITY           SKY/WX    TMP DP  RH WIND       PRES   REMARKS
GRAND JUNCTION MOCLDY    45  29  53 E12       29.91S
MONTROSE       MOCLDY    40  29  64 SE8       29.97F
EAGLE          MOCLDY    28  23  80 CALM      30.01S
RIFLE          CLOUDY    38  30  73 SW5       29.95F
DELTA          MOCLDY    42  30  62 NE3       29.96S
NUCLA          CLOUDY    36  28  75 CALM      30.00S
$$

COZ017>023-064>068-271400-
...SOUTHWEST COLORADO...

CITY           SKY/WX    TMP DP  RH WIND       PRES   REMARKS
DURANGO        FAIR      27  22  81 CALM      30.01R
CORTEZ         FAIR      31  27  85 CALM      29.98F
PAGOSA SPRINGS FAIR      29  28  98 CALM      30.05R
TELLURIDE      NOT AVBL
WOLF CREEK PAS FOG       19  19 100 S10       30.12S VSB 1/2 WCI   8
$$

COZ009-010-012-014-032>034-037-058>063-271400-
...CENTRAL COLORADO...

CITY           SKY/WX    TMP DP  RH WIND       PRES   REMARKS
ASPEN          MOCLDY    32  20  61 SW6       29.97F WCI  26
BUENA VISTA    FAIR      25  19  77 CALM      30.02R
COPPER MTN     NOT AVBL
BERTHOUD PASS  FAIR      14   3  62 NW30      30.00S WCI  -7
COTTONWOOD PAS FAIR      32  19  59 CALM      30.03R
GUNNISON       FAIR      24  21  88 NE3       30.04S
KREMMLING      CLOUDY    32  28  86 CALM      30.01S
LEADVILLE      FAIR      21  14  74 S6        30.02R WCI  13
MONARCH PASS   FOG       21  19  93 W25       30.15S VSB 1/2 WCI   4
SALIDA         FAIR      28  26  93 CALM      30.09R
SUNLIGHT       CLOUDY    27  19  74 SW7       30.07S WCI  19
WILKERSON PASS FAIR      23  14  68 W6        30.07R WCI  16
$$

COZ069>075-271400-
...SAN LUIS VALLEY/SANGRE DE CRISTO MOUNTAINS...

CITY           SKY/WX    TMP DP  RH WIND       PRES   REMARKS
ALAMOSA        FAIR      25  22  88 N5        30.01R WCI  19
LA VETA PASS   NOT AVBL
SAGUACHE       NOT AVBL
$$

COZ035-036-038>040-271400-
...NORTHERN COLORADO FRONT RANGE...

CITY           SKY/WX    TMP DP  RH WIND       PRES   REMARKS
DENVER INTL AP FAIR      34  30  85 S8        29.92S WCI  27
DMNS CITY PARK   N/A     37  35  94 N5        29.93S
AURORA         PTCLDY    36  35  99 S8        29.93S
FRONT RANGE AP PTCLDY    36  32  87 S9        29.94R
ERIE MUNI ARPT FOG       32  32 100 SW3       29.93R VSB<1/4
BOULDER MUN AP FAIR      36  36 100 CALM      29.93R
CENTENNIAL     FAIR      34  31  88 SE7       29.93S WCI  28
BROOMFIELD     PTCLDY    36  32  87 CALM      29.93S
FORT COLLINS   FAIR      30  30 100 N6        29.94S FOG     WCI  24
LONGMONT       FAIR      33  32  96 CALM      29.95S FOG
$$

COZ041-046-047-076>085-087-088-271400-
...PIKES PEAK/PALMER DIVIDE AND SOUTHERN FOOTHILLS...

CITY           SKY/WX    TMP DP  RH WIND       PRES   REMARKS
COLO. SPRINGS  FAIR      33  30  88 NE6       29.97S WCI  28
A. F. ACADEMY  CLOUDY    38  37  99 CALM      29.96R
SCHRIEVER AFB  FAIR      34  34  98 N5        29.97S WCI  30
ELLICOTT         N/A    N/A N/A N/A CALM      29.96R
FALCON         FAIR      32  32 100 W6        29.98S FOG     WCI  26
FORT CARSON    FAIR      33  33  99 NW6       29.96R WCI  27
LIMON          FAIR      28  28 100 W7        29.96R WCI  21
MONUMENT HILL  FAIR      32  32 100 S10       29.97R WCI  24
TRINIDAD       FAIR      34  31  88 W10       29.96F WCI  26
$$

COZ042>045-048>051-090-091-271400-
...NORTHEAST COLORADO...

CITY           SKY/WX    TMP DP  RH WIND       PRES   REMARKS
GREELEY ARPT   FAIR      24  21  88 NW6       29.95R WCI  17
AKRON          FAIR      36  33  89 SW7       29.93F
BURLINGTON     FAIR      33  32  96 W8        29.95S WCI  26
WRAY           NOT AVBL
STERLING       FAIR      30  28  93 CALM      29.93S
HOLYOKE        FAIR      34  32  93 W7        29.94S WCI  28
FORT MORGAN    FAIR      32  31  96 W5        29.94S WCI  28
$$

COZ086-089-092>099-271400-
...SOUTHEAST COLORADO...

CITY           SKY/WX    TMP DP  RH WIND       PRES   REMARKS
PUEBLO         FAIR      31  29  92 CALM      29.95S FOG
LA JUNTA       FAIR      34  32  92 W8        29.96R WCI  27
LAMAR          FAIR      27  24  89 SW9       29.95S FOG     WCI  18
SPRINGFIELD      N/A     29  27  92 W5        29.96S WCI  24
$$




USA.gov is the U.S. government's official web portal to all federal, state and local government web resources and services.